Vorticity
6 7 4 4 4 5 3 2 2 3 3 3 4 3 4 5 5 4 5 7 8 7 6 5 5 4 1 3 4 8 6 7 8 7 6 6 7 7 7 4 5 8 12
4 2 3 9 5 3 4 4 3 3 4 3 4 4 3 3 4 3 5 7 9 8 7 6 7 2 2 3 4 4 8 8 8 7 7 5 5 6 4 4 6 8 9
10 5 8 9 6 4 5 5 4 3 3 3 4 4 2 3 3 3 4 5 8 9 7 6 1 1 3 2 3 3 4 7 8 8 7 6 6 5 5 5 5 5 4
7 9 8 5 6 6 5 3 5 4 3 4 3 5 2 2 4 3 4 3 5 9 7 7 1 5 3 2 3 4 3 4 6 7 8 7 6 6 6 6 6 6 6
4 4 8 10 9 9 3 7 6 5 4 4 3 4 4 3 3 3 3 5 5 5 9 6 3 4 2 3 2 3 4 3 4 7 8 7 7 7 6 5 5 6 6
2 -0 3 7 -4 9 5 8 3 5 5 5 4 5 5 5 3 3 3 4 4 5 5 8 6 4 1 2 4 3 4 4 3 4 6 8 7 6 6 6 6 6 6
8 8 8 5 6 2 6 7 6 7 5 4 5 4 4 3 4 4 4 4 4 4 4 6 6 6 6 3 2 2 4 4 4 3 4 6 7 8 7 6 6 6 6
4 4 5 7 6 5 2 7 7 7 8 7 5 3 4 5 6 5 5 5 4 5 7 6 5 6 7 4 3 2 4 5 5 4 3 4 5 7 8 7 6 5 5
8 6 6 7 7 8 9 4 3 3 4 2 6 6 5 5 4 3 3 4 3 3 4 4 6 7 6 6 5 4 4 4 5 4 4 3 3 4 6 7 8 7 5
10 10 9 7 6 6 7 8 10 6 3 2 2 2 2 2 1 2 1 2 3 3 4 5 4 5 6 7 8 7 5 5 5 4 5 4 3 3 4 5 6 7 8
7 6 6 6 7 7 8 9 9 9 9 9 8 6 5 5 5 6 4 2 3 3 4 5 4 4 5 3 6 8 6 7 6 4 4 5 4 4 3 4 5 6 7
4 5 5 4 4 4 4 3 4 5 6 8 9 9 8 7 8 6 7 9 7 4 3 4 4 4 3 1 5 3 7 6 7 5 4 4 4 4 3 3 4 4 6
5 5 5 6 6 6 6 6 6 5 5 5 5 6 6 8 7 5 6 6 6 7 6 5 4 4 4 4 6 8 9 6 6 7 6 5 6 5 5 4 3 3 4
5 6 6 6 7 7 8 8 7 7 7 6 6 6 6 5 6 8 7 5 3 2 4 5 5 3 4 8 5 6 7 7 7 6 6 5 5 4 7 6 4 3 3
6 6 6 7 7 8 9 9 10 10 10 10 10 10 8 7 6 6 6 8 7 4 5 2 2 7 10 6 7 10 9 7 8 8 8 8 7 6 5 7 7 5 4
6 6 7 7 8 8 8 9 8 8 8 8 7 6 8 10 11 9 7 7 8 10 7 5 4 2 6 8 8 2 5 7 13 9 10 7 6 6 5 5 6 6 5
7 7 7 7 9 11 11 11 10 10 11 11 11 11 11 8 6 8 12 12 12 9 11 9 5 4 -1 5 6 -0 7 5 1 1 -0 -0 5 -1 15 17 5 8 7
7 8 9 10 9 8 7 10 13 11 9 11 13 16 17 16 14 12 7 8 9 12 14 14 9 10 10 7 3 6 2 10 4 5 7 3 1 -5 2 -15 -7 5 5
10 9 7 8 9 9 12 14 8 7 10 9 16 10 18 20 19 16 15 14 14 11 13 17 10 8 10 7 9 6 3 2 6 5 6 7 6 6 8 10 15 18 22
7 7 8 16 12 12 10 7 4 1 14 17 12 6 15 20 20 18 17 15 16 21 24 26 20 8 14 13 6 6 1 -0 4 7 7 5 3 7 5 1 -2 -3 -2
5 8 12 14 9 5 4 5 6 2 14 9 6 2 10 8 13 20 28 22 18 18 8 9 10 37 2 19 -9 16 8 7 12 9 5 6 5 6 5 3 2 2 1
6 11 15 10 7 8 7 5 7 10 12 8 6 11 7 12 12 13 18 22 17 16 13 22 28 -19 34 1 -25 81 10 13 13 15 5 6 6 6 5 3 1 -1 -2
10 15 11 7 6 4 7 9 15 13 9 10 8 8 11 7 12 10 15 11 14 13 12 19 22 19 20 -36 21 8 10 21 26 -2 -10 6 3 3 2 -1 -1 2 7
13 14 8 5 5 6 13 19 9 7 9 12 12 13 8 12 8 12 10 14 17 22 18 5 11 33 14 3 39 20 33 -0 23 40 30 44 1 3 10 14 9 7 9
16 14 8 8 12 12 14 14 17 15 15 16 15 15 12 11 7 15 7 -3 -2 1 16 18 11 -22 9 2 5 17 12 4 12 12 2 14 7 7 11 10 10 15 16
17 15 13 12 12 13 13 12 16 15 14 13 14 11 13 17 14 19 23 21 13 16 17 19 29 16 7 12 12 5 6 6 7 6 9 6 7 12 18 18 23 26 17
Height
3168 3169 3171 3172 3172 3173 3174 3174 3174 3175 3174 3174 3174 3174 3174 3173 3173 3172 3171 3171 3170 3170 3170 3169 3169 3169 3169 3168 3166 3166 3165 3165 3165 3165 3164 3165 3165 3165 3165 3165 3166 3165 3165
3168 3169 3170 3171 3172 3172 3173 3173 3173 3174 3173 3173 3174 3174 3174 3173 3173 3173 3172 3171 3170 3170 3170 3169 3169 3169 3169 3168 3167 3166 3165 3165 3165 3164 3164 3164 3164 3164 3165 3165 3165 3165 3165
3167 3167 3168 3169 3170 3171 3172 3172 3172 3173 3173 3173 3173 3173 3173 3172 3172 3172 3172 3171 3170 3170 3169 3169 3168 3169 3168 3168 3167 3167 3166 3165 3164 3163 3163 3164 3164 3164 3164 3164 3164 3164 3164
3166 3166 3167 3168 3168 3169 3170 3171 3171 3171 3172 3172 3172 3172 3172 3172 3171 3171 3171 3171 3170 3170 3170 3169 3168 3168 3168 3167 3167 3166 3166 3164 3164 3163 3163 3162 3163 3163 3163 3163 3163 3163 3163
3166 3166 3166 3166 3167 3167 3168 3169 3170 3170 3170 3170 3171 3170 3170 3169 3170 3170 3169 3169 3169 3169 3169 3168 3167 3167 3167 3166 3166 3166 3165 3164 3163 3163 3162 3161 3162 3162 3162 3161 3162 3162 3162
3163 3164 3165 3165 3165 3166 3166 3167 3166 3167 3167 3168 3168 3168 3169 3169 3168 3168 3168 3168 3167 3167 3167 3167 3166 3166 3166 3165 3165 3164 3164 3164 3163 3162 3161 3161 3160 3160 3160 3160 3160 3160 3161
3161 3162 3163 3163 3163 3163 3163 3164 3165 3165 3165 3166 3166 3166 3166 3166 3167 3166 3166 3166 3166 3165 3165 3164 3164 3164 3164 3163 3163 3163 3162 3162 3162 3161 3160 3160 3159 3159 3159 3159 3159 3158 3158
3160 3160 3160 3160 3160 3161 3161 3162 3162 3163 3163 3163 3163 3163 3163 3164 3163 3163 3163 3163 3163 3163 3163 3162 3162 3161 3161 3161 3161 3160 3160 3160 3160 3160 3159 3158 3158 3157 3157 3157 3157 3157 3157
3158 3158 3158 3158 3158 3158 3159 3159 3159 3159 3160 3160 3159 3159 3159 3159 3159 3160 3160 3160 3160 3160 3160 3160 3159 3159 3159 3158 3158 3157 3157 3158 3158 3158 3157 3157 3156 3156 3155 3155 3155 3154 3154
3156 3156 3155 3155 3155 3155 3155 3155 3156 3155 3155 3155 3155 3155 3155 3155 3155 3155 3155 3155 3156 3156 3156 3156 3156 3156 3155 3155 3155 3155 3154 3154 3155 3155 3154 3154 3154 3153 3153 3153 3152 3152 3152
3154 3153 3153 3152 3152 3152 3151 3151 3151 3151 3151 3151 3151 3150 3150 3150 3150 3150 3150 3150 3150 3150 3151 3151 3151 3151 3151 3150 3150 3151 3151 3150 3150 3150 3150 3150 3150 3150 3150 3150 3150 3149 3149
3151 3150 3150 3149 3149 3148 3147 3147 3146 3146 3145 3145 3144 3144 3144 3144 3144 3144 3144 3144 3144 3144 3144 3145 3145 3145 3145 3146 3146 3145 3146 3146 3146 3146 3146 3146 3146 3146 3146 3146 3146 3147 3147
3147 3146 3145 3145 3144 3144 3143 3142 3141 3141 3140 3139 3138 3138 3137 3137 3137 3137 3137 3137 3137 3138 3138 3138 3139 3140 3140 3139 3140 3140 3140 3140 3141 3141 3142 3142 3142 3143 3142 3142 3143 3143 3143
3142 3141 3141 3140 3140 3138 3138 3137 3135 3134 3134 3133 3132 3131 3129 3129 3130 3130 3129 3130 3131 3131 3132 3132 3132 3133 3133 3133 3133 3133 3134 3134 3135 3135 3136 3136 3137 3137 3138 3138 3138 3139 3139
3137 3137 3136 3135 3134 3134 3133 3132 3130 3129 3127 3126 3125 3124 3122 3121 3121 3121 3121 3122 3122 3123 3124 3125 3125 3126 3126 3126 3126 3126 3127 3127 3128 3129 3130 3130 3131 3131 3132 3133 3133 3133 3134
3133 3133 3132 3130 3129 3128 3127 3126 3125 3123 3121 3120 3118 3117 3115 3113 3112 3111 3111 3112 3113 3114 3115 3116 3117 3117 3118 3119 3119 3120 3121 3121 3122 3122 3123 3124 3124 3124 3125 3126 3127 3128 3128
3129 3128 3126 3124 3123 3122 3121 3120 3118 3116 3114 3112 3111 3109 3107 3104 3102 3101 3101 3101 3101 3102 3104 3106 3108 3109 3110 3111 3112 3113 3114 3115 3115 3116 3117 3118 3119 3118 3118 3119 3120 3121 3121
3124 3123 3121 3119 3118 3117 3115 3113 3111 3110 3108 3105 3103 3102 3100 3097 3095 3092 3091 3090 3090 3090 3092 3095 3097 3099 3101 3103 3104 3104 3106 3107 3109 3110 3111 3112 3112 3112 3111 3112 3112 3113 3114
3120 3118 3116 3114 3113 3111 3109 3107 3105 3103 3101 3098 3096 3094 3092 3088 3085 3083 3081 3080 3081 3082 3083 3085 3087 3089 3091 3093 3095 3096 3097 3099 3101 3102 3104 3106 3106 3106 3106 3106 3105 3106 3107
3115 3114 3111 3109 3107 3105 3104 3102 3100 3097 3093 3091 3089 3087 3084 3081 3079 3076 3074 3072 3071 3073 3073 3076 3078 3080 3082 3084 3086 3087 3089 3091 3092 3095 3097 3097 3098 3098 3099 3099 3099 3100 3100
3109 3107 3105 3103 3101 3099 3098 3096 3094 3091 3089 3086 3083 3081 3079 3075 3072 3069 3066 3064 3064 3064 3065 3068 3071 3071 3075 3073 3072 3076 3078 3080 3082 3084 3085 3087 3089 3090 3089 3089 3088 3089 3089
3102 3100 3099 3098 3096 3095 3093 3091 3088 3086 3084 3082 3079 3077 3074 3070 3068 3064 3062 3060 3058 3058 3058 3059 3062 3065 3066 3066 3062 3063 3066 3071 3071 3074 3075 3076 3078 3079 3079 3079 3079 3079 3078
3097 3095 3094 3093 3092 3091 3089 3085 3083 3081 3080 3077 3075 3073 3070 3067 3064 3061 3058 3056 3056 3055 3054 3055 3055 3056 3059 3057 3058 3059 3057 3059 3059 3060 3063 3065 3067 3069 3068 3068 3069 3068 3066
3092 3090 3090 3089 3088 3086 3084 3082 3080 3077 3075 3073 3072 3070 3067 3064 3061 3058 3056 3055 3053 3051 3051 3052 3051 3051 3052 3053 3051 3050 3052 3052 3052 3052 3054 3055 3057 3059 3057 3055 3054 3054 3053
3088 3086 3085 3085 3084 3083 3081 3079 3077 3075 3072 3070 3069 3067 3064 3062 3059 3056 3054 3052 3051 3049 3048 3047 3047 3048 3048 3048 3048 3047 3046 3041 3043 3042 3038 3042 3047 3048 3045 3042 3039 3038 3037
3085 3084 3083 3082 3082 3081 3079 3077 3074 3073 3070 3068 3066 3064 3062 3060 3057 3055 3052 3049 3047 3046 3044 3043 3042 3043 3042 3042 3042 3040 3037 3036 3036 3031 3029 3027 3027 3033 3034 3031 3028 3024 3024